GW5094 Weather Reports


time (UTC)temp
F
wind
direction
speed
knots
gust
knots
rain 1hr
in
rain 24hr
in
rain mn
in
humidity
%
barometer
mb
20260507080011 55 92 0.0 1.7 0.00 0.00 0.00 87 1017.5
20260507075503 55 92 0.0 1.7 0.00 0.00 0.00 87 1017.5
20260507075002 55 92 0.0 3.5 0.00 0.00 0.00 87 1017.5
20260507074516 55 92 1.7 3.5 0.00 0.00 0.00 86 1017.5
20260507074007 56 72 0.9 1.7 0.00 0.00 0.00 86 1017.6
20260507073502 55 72 0.9 2.6 0.00 0.00 0.00 86 1017.6
20260507073004 56 72 0.9 3.5 0.00 0.00 0.00 86 1017.5
20260507072503 56 61 0.9 3.5 0.00 0.00 0.00 87 1017.5
20260507072003 56 62 1.7 3.5 0.00 0.00 0.00 87 1017.6
20260507071511 56 62 2.6 3.5 0.00 0.00 0.00 87 1017.6
20260507071003 56 62 1.7 2.6 0.00 0.00 0.00 87 1017.7
20260507070504 56 103 0.9 1.7 0.00 0.00 0.00 87 1017.7
20260507070013 56 103 0.9 1.7 0.00 0.00 0.00 87 1017.8
20260507065505 57 91 0.9 2.6 0.00 0.00 0.00 87 1017.7
20260507065006 57 114 1.7 2.6 0.00 0.00 0.00 87 1017.7
20260507064516 57 137 0.9 2.6 0.00 0.00 0.00 87 1017.7
20260507064005 57 94 0.9 3.5 0.00 0.00 0.00 87 1017.8
20260507063505 57 90 0.9 3.5 0.00 0.00 0.00 87 1017.7
20260507063016 57 86 2.6 3.5 0.00 0.00 0.00 87 1017.7
20260507062504 57 94 0.9 2.6 0.00 0.00 0.00 87 1017.7
20260507062011 58 109 0.9 1.7 0.00 0.00 0.00 87 1017.8
20260507061505 58 130 0.9 1.7 0.00 0.00 0.00 87 1017.8
20260507061003 58 130 0.9 1.7 0.00 0.00 0.00 86 1017.8
20260507060503 57 130 0.9 1.7 0.00 0.00 0.00 86 1017.9
20260507060005 57 130 0.0 1.7 0.00 0.00 0.00 86 1017.9
20260507055504 57 130 0.0 1.7 0.00 0.00 0.00 86 1017.9
20260507055007 57 130 0.9 1.7 0.00 0.00 0.00 86 1018.0
20260507054513 57 130 0.9 1.7 0.00 0.00 0.00 86 1018.0
20260507054005 57 130 0.9 0.9 0.00 0.00 0.00 86 1017.9
20260507053504 57 130 0.9 1.7 0.00 0.00 0.00 86 1017.9
20260507053018 58 130 0.9 1.7 0.00 0.00 0.00 86 1017.9
20260507052507 58 192 0.9 1.7 0.00 0.00 0.00 87 1018.0
20260507052008 58 192 0.0 1.7 0.00 0.00 0.00 87 1018.0
20260507051527 58 192 0.0 0.9 0.00 0.00 0.00 87 1017.9
20260507051003 58 192 0.0 0.0 0.00 0.00 0.00 87 1017.9
20260507050507 58 192 0.0 1.7 0.00 0.00 0.00 87 1018.0
20260507050006 58 192 0.0 1.7 0.00 0.00 0.00 87 1018.0
20260507045503 58 192 0.0 0.0 0.00 0.00 0.00 87 1017.9
20260507045007 58 192 0.0 1.7 0.00 0.00 0.00 87 1017.9
20260507044508 58 192 0.0 1.7 0.00 0.00 0.00 87 1017.9
20260507044003 58 192 0.0 1.7 0.00 0.00 0.00 87 1017.9
20260507043503 58 192 0.0 1.7 0.00 0.00 0.00 87 1017.9
20260507043018 58 192 0.0 1.7 0.00 0.00 0.00 86 1017.8
20260507042505 58 192 0.0 1.7 0.00 0.00 0.00 86 1017.7
20260507042008 58 192 0.0 1.7 0.00 0.00 0.00 86 1017.7
20260507041516 58 192 0.0 1.7 0.00 0.00 0.00 86 1017.7
20260507041004 59 192 0.0 1.7 0.00 0.00 0.00 86 1017.7
20260507040505 59 192 0.0 1.7 0.00 0.00 0.00 86 1017.6
20260507040002 59 177 0.0 1.7 0.00 0.00 0.00 85 1017.6
20260507035502 59 236 0.0 1.7 0.00 0.00 0.00 85 1017.5
20260507035002 59 236 0.0 2.6 0.00 0.00 0.00 85 1017.4
20260507034505 59 236 0.9 3.5 0.00 0.00 0.00 85 1017.3
20260507034001 59 232 0.9 3.5 0.00 0.00 0.00 84 1017.4
20260507033501 60 226 1.7 3.5 0.00 0.00 0.00 84 1017.3
20260507033010 60 206 2.6 3.5 0.00 0.00 0.00 83 1017.2
20260507032459 60 185 1.7 3.5 0.00 0.00 0.00 83 1017.1
20260507032002 60 206 0.9 2.6 0.00 0.00 0.00 83 1017.1
20260507031503 60 206 1.7 2.6 0.00 0.00 0.00 83 1017.0
20260507031003 60 211 0.9 2.6 0.00 0.00 0.00 83 1016.9
20260507030503 60 211 1.7 2.6 0.00 0.00 0.00 82 1016.8
20260507030003 60 230 0.9 3.5 0.00 0.00 0.00 82 1016.8
20260507025458 60 212 1.7 5.2 0.00 0.00 0.00 81 1016.7
20260507025002 61 254 2.6 5.2 0.00 0.00 0.00 80 1016.7
20260507024503 61 264 1.7 6.1 0.00 0.00 0.00 1016.8
20260507024006 61 244 4.3 6.1 0.00 0.00 0.00 77 1016.7
20260507023503 62 211 3.5 5.2 0.00 0.00 0.00 77 1016.7
20260507023006 62 213 3.5 6.1 0.00 0.00 0.00 76 1016.6
20260507022503 62 227 2.6 6.1 0.00 0.00 0.00 74 1016.5
20260507022003 62 220 3.5 7.8 0.00 0.00 0.00 73 1016.5
20260507021504 62 188 3.5 7.8 0.00 0.00 0.00 73 1016.5
20260507021002 62 214 1.7 7.0 0.00 0.00 0.00 73 1016.5
20260507020502 63 215 3.5 6.1 0.00 0.00 0.00 74 1016.4
20260507020006 63 211 3.5 7.0 0.00 0.00 0.00 74 1016.5
20260507015501 63 263 3.5 7.8 0.00 0.00 0.00 75 1016.5
20260507015005 63 217 4.3 7.8 0.00 0.00 0.00 75 1016.5
20260507014507 64 224 4.3 7.8 0.00 0.00 0.00 74 1016.4
20260507014003 63 231 3.5 7.0 0.00 0.00 0.00 73 1016.4
20260507013502 64 219 4.3 7.8 0.00 0.00 0.00 73 1016.4
20260507013003 64 242 3.5 8.7 0.00 0.00 0.00 71 1016.4
20260507012503 64 271 5.2 8.7 0.00 0.00 0.00 70 1016.4
20260507012003 64 234 5.2 8.7 0.00 0.00 0.00 70 1016.4
20260507011505 65 214 3.5 9.6 0.00 0.00 0.00 70 1016.4
20260507011002 65 258 4.3 9.6 0.00 0.00 0.00 69 1016.4
20260507010503 65 234 5.2 8.7 0.00 0.00 0.00 69 1016.5
20260507010004 65 273 6.1 9.6 0.00 0.00 0.00 68 1016.5
20260507005503 65 273 5.2 9.6 0.00 0.00 0.00 69 1016.5
20260507005003 65 200 4.3 9.6 0.00 0.00 0.00 68 1016.5
20260507004504 65 269 7.0 9.6 0.00 0.00 0.00 67 1016.6
20260507004003 66 236 5.2 10.4 0.00 0.00 0.00 66 1016.6
20260507003503 66 269 6.1 10.4 0.00 0.00 0.00 66 1016.5
20260507003004 66 237 5.2 13.9 0.00 0.00 0.00 66 1016.6
20260507002503 66 257 7.0 13.9 0.00 0.00 0.00 64 1016.6
20260507002003 66 261 8.7 12.2 0.00 0.00 0.00 64 1016.7
20260507001502 66 270 7.0 13.9 0.00 0.00 0.00 64 1016.7
20260507001003 67 257 8.7 13.9 0.00 0.00 0.00 63 1016.7
20260507000503 67 252 8.7 12.2 0.00 0.00 0.00 63 1016.7
20260507000007 67 242 7.8 13.9 0.00 0.00 0.00 62 1016.6
20260506235505 67 264 7.8 13.9 0.00 0.00 0.00 63 1016.6
20260506235003 67 252 10.4 13.0 0.00 0.00 0.00 62 1016.7
20260506234503 67 235 9.6 14.8 0.00 0.00 0.00 60 1016.6
20260506234001 67 265 7.8 15.6 0.00 0.00 0.00 60 1016.6
20260506233502 68 236 10.4 15.6 0.00 0.00 0.00 60 1016.7
20260506233003 68 266 9.6 14.8 0.00 0.00 0.00 59 1016.6
20260506232502 68 284 8.7 14.8 0.00 0.00 0.00 60 1016.6
20260506232002 68 252 9.6 14.8 0.00 0.00 0.00 60 1016.7
20260506231506 68 293 7.8 13.9 0.00 0.00 0.00 61 1016.7
20260506231001 68 285 9.6 14.8 0.00 0.00 0.00 61 1016.8
20260506230502 68 271 9.6 14.8 0.00 0.00 0.00 59 1016.8
20260506230007 69 275 8.7 13.9 0.00 0.00 0.00 62 1016.9
20260506225502 69 272 9.6 13.9 0.00 0.00 0.00 62 1016.9
20260506225002 68 260 8.7 13.9 0.00 0.00 0.00 63 1017.0
20260506224503 67 257 7.8 13.0 0.00 0.00 0.00 61 1017.1
20260506224004 68 275 7.8 13.9 0.00 0.00 0.00 63 1017.2
20260506223501 68 260 8.7 13.9 0.00 0.00 0.00 63 1017.3
20260506223006 68 282 7.0 13.9 0.00 0.00 0.00 65 1017.3
20260506222502 67 244 9.6 13.0 0.00 0.00 0.00 64 1017.5
20260506222003 67 250 7.8 13.9 0.00 0.00 0.00 64 1017.6
20260506221509 68 238 8.7 13.9 0.00 0.00 0.00 63 1017.7
20260506221002 68 265 8.7 13.0 0.00 0.00 0.00 61 1017.8
20260506220502 68 248 8.7 13.0 0.00 0.00 0.00 63 1017.8
20260506220022 69 260 6.1 12.2 0.00 0.00 0.00 62 1017.8
20260506215503 69 257 8.7 14.8 0.00 0.00 0.00 61 1017.9
20260506215002 70 217 7.0 14.8 0.00 0.00 0.00 62 1017.9
20260506214507 69 284 7.8 12.2 0.00 0.00 0.00 63 1018.0
20260506214001 69 281 7.8 12.2 0.00 0.00 0.00 63 1018.0
20260506213503 68 265 8.7 13.9 0.00 0.00 0.00 63 1018.1
20260506213006 69 255 8.7 13.9 0.00 0.00 0.00 61 1018.1
20260506212503 69 250 8.7 11.3 0.00 0.00 0.00 60 1018.1
20260506212003 69 290 6.1 11.3 0.00 0.00 0.00 62 1018.2
20260506211510 68 223 7.0 11.3 0.00 0.00 0.00 61 1018.2
20260506211003 69 267 7.8 11.3 0.00 0.00 0.00 60 1018.3
20260506210503 70 252 8.7 11.3 0.00 0.00 0.00 59 1018.3
20260506210012 70 238 4.3 13.9 0.00 0.00 0.00 62 1018.4
20260506205504 68 239 6.1 13.9 0.00 0.00 0.00 62 1018.4
20260506205004 69 244 7.0 11.3 0.00 0.00 0.00 59 1018.4
20260506204510 69 232 4.3 10.4 0.00 0.00 0.00 60 1018.5
20260506204003 68 221 6.1 10.4 0.00 0.00 0.00 59 1018.5
20260506203502 69 230 5.2 11.3 0.00 0.00 0.00 60 1018.4
20260506203019 69 251 5.2 11.3 0.00 0.00 0.00 58 1018.5
20260506202503 70 288 6.1 11.3 0.00 0.00 0.00 60 1018.5
20260506202010 69 253 7.0 11.3 0.00 0.00 0.00 63 1018.6
20260506201512 68 275 5.2 13.0 0.00 0.00 0.00 63 1018.6
20260506201004 68 248 5.2 13.0 0.00 0.00 0.00 62 1018.6
20260506200503 68 242 7.0 13.0 0.00 0.00 0.00 61 1018.6
20260506200019 69 219 7.0 11.3 0.00 0.00 0.00 60 1018.6
20260506195503 68 248 7.0 11.3 0.00 0.00 0.00 62 1018.6
20260506195006 68 233 8.7 12.2 0.00 0.00 0.00 62 1018.7
20260506194507 70 323 6.1 12.2 0.00 0.00 0.00 61 1018.7
20260506194005 69 250 6.1 9.6 0.00 0.00 0.00 61 1018.8
20260506193509 69 254 6.1 10.4 0.00 0.00 0.00 64 1018.9
20260506193012 68 233 7.0 10.4 0.00 0.00 0.00 65 1018.8
20260506192503 68 283 7.8 11.3 0.00 0.00 0.00 64 1018.8
20260506192007 68 235 7.8 11.3 0.00 0.00 0.00 64 1018.8
20260506191512 68 296 7.8 11.3 0.00 0.00 0.00 65 1018.9
20260506191004 69 261 7.0 11.3 0.00 0.00 0.00 64 1018.8
20260506190504 69 277 7.0 11.3 0.00 0.00 0.00 62 1018.8
20260506190022 69 268 6.1 10.4 0.00 0.00 0.00 65 1018.8
20260506185501 69 271 7.0 10.4 0.00 0.00 0.00 65 1018.8
20260506185003 68 261 4.3 12.2 0.00 0.00 0.00 64 1018.8
20260506184503 68 266 6.1 12.2 0.00 0.00 0.00 65 1018.9
20260506184004 68 271 7.8 11.3 0.00 0.00 0.00 67 1018.9
20260506183502 68 265 6.1 11.3 0.00 0.00 0.00 67 1019.0
20260506183005 68 254 6.1 10.4 0.00 0.00 0.00 67 1019.0
20260506182501 67 221 5.2 12.2 0.00 0.00 0.00 66 1019.0
20260506182003 68 252 7.8 12.2 0.00 0.00 0.00 66 1019.0
20260506181503 67 270 7.0 11.3 0.00 0.00 0.00 65 1019.1
20260506181002 68 259 6.1 11.3 0.00 0.00 0.00 67 1019.1
20260506180507 68 240 5.2 11.3 0.00 0.00 0.00 65 1019.1
20260506180005 68 207 7.0 11.3 0.00 0.00 0.00 65 1019.1
20260506175503 68 250 3.5 12.2 0.00 0.00 0.00 65 1019.1
20260506175006 69 256 7.8 12.2 0.00 0.00 0.00 63 1019.2
20260506174504 68 232 5.2 7.8 0.00 0.00 0.00 64 1019.1
20260506174001 67 223 2.6 7.8 0.00 0.00 0.00 1019.2
20260506173503 0 183 1.7 7.8 0.00 0.00 0.00 1019.1
20260506173004 67 244 4.3 7.8 0.00 0.00 0.00 1019.1
20260506172501 67 252 6.1 7.8 0.00 0.00 0.00 66 1019.1
20260506172002 67 249 1.7 7.8 0.00 0.00 0.00 66 1019.1
20260506171503 66 265 2.6 7.0 0.00 0.00 0.00 66 1019.0
20260506171003 65 266 4.3 7.0 0.00 0.00 0.00 65 1019.1
20260506170505 66 229 2.6 5.2 0.00 0.00 0.00 65 1019.0
20260506170003 65 241 0.9 5.2 0.00 0.00 0.00 68 1019.0
20260506165506 65 235 3.5 6.1 0.00 0.00 0.00 67 1019.0
20260506165003 64 258 2.6 7.8 0.00 0.00 0.00 67 1018.9
20260506164504 65 232 3.5 8.7 0.00 0.00 0.00 67 1019.0
20260506164005 65 231 3.5 8.7 0.00 0.00 0.00 67 1019.0
20260506163503 64 261 3.5 5.2 0.00 0.00 0.00 67 1019.1
20260506163008 65 190 0.9 5.2 0.00 0.00 0.00 67 1019.0
20260506162504 64 274 2.6 5.2 0.00 0.00 0.00 70 1019.0
20260506162003 65 167 0.9 7.0 0.00 0.00 0.00 66 1018.9
20260506161504 64 275 2.6 7.0 0.00 0.00 0.00 69 1018.9
20260506161004 63 225 0.9 4.3 0.00 0.00 0.00 70 1019.0
20260506160502 64 221 1.7 4.3 0.00 0.00 0.00 68 1018.9
20260506160006 63 307 0.9 2.6 0.00 0.00 0.00 70 1018.8
20260506155502 62 142 0.9 2.6 0.00 0.00 0.00 70 1018.8
20260506155003 62 238 0.9 2.6 0.00 0.00 0.00 69 1018.8
20260506154503 62 337 1.7 2.6 0.00 0.00 0.00 70 1018.7
20260506154004 60 13 0.9 4.3 0.00 0.00 0.00 70 1018.7
20260506153503 60 59 1.7 5.2 0.00 0.00 0.00 71 1018.8
20260506153008 60 46 2.6 6.1 0.00 0.00 0.00 72 1018.9
20260506152506 59 50 2.6 7.0 0.00 0.00 0.00 72 1018.9
20260506152004 59 46 2.6 7.8 0.00 0.00 0.00 73 1018.9
20260506151504 58 68 3.5 7.8 0.00 0.00 0.00 74 1018.9
20260506151005 58 59 3.5 6.1 0.00 0.00 0.00 74 1018.9
20260506150504 58 52 3.5 7.8 0.00 0.00 0.00 75 1018.9
20260506150003 57 35 2.6 7.8 0.00 0.00 0.00 76 1018.9
20260506145508 57 56 4.3 7.8 0.00 0.00 0.00 76 1018.9
20260506145003 56 55 3.5 7.0 0.00 0.00 0.00 77 1018.9
20260506144502 56 62 3.5 7.8 0.00 0.00 0.00 78 1018.8
20260506144002 56 48 4.3 7.8 0.00 0.00 0.00 78 1018.8
20260506143502 55 53 3.5 7.8 0.00 0.00 0.00 79 1018.7
20260506143005 55 24 3.5 7.8 0.00 0.00 0.00 79 1018.7
20260506142503 55 71 4.3 7.8 0.00 0.00 0.00 80 1018.7
20260506142003 54 23 3.5 7.0 0.00 0.00 0.00 81 1018.6
20260506141503 54 56 3.5 7.0 0.00 0.00 0.00 82 1018.6
20260506141006 53 57 2.6 7.8 0.00 0.00 0.00 83 1018.6
20260506140505 53 62 3.5 7.8 0.00 0.00 0.00 83 1018.5
20260506140003 52 54 3.5 5.2 0.00 0.00 0.00 84 1018.5
20260506135506 52 53 2.6 7.0 0.00 0.00 0.00 85 1018.5
20260506135005 51 48 3.5 7.0 0.00 0.00 0.00 85 1018.5
20260506134504 51 45 3.5 5.2 0.00 0.00 0.00 85 1018.4
20260506134005 51 55 2.6 5.2 0.00 0.00 0.00 86 1018.4
20260506133503 51 46 1.7 4.3 0.00 0.00 0.00 85 1018.5
20260506133004 51 67 2.6 5.2 0.00 0.00 0.00 85 1018.5
20260506132508 51 69 2.6 5.2 0.00 0.00 0.00 85 1018.5
20260506132002 51 51 1.7 6.1 0.00 0.00 0.00 84 1018.5
20260506131508 52 66 3.5 6.1 0.00 0.00 0.00 84 1018.5
20260506131004 52 56 1.7 3.5 0.00 0.00 0.00 84 1018.4
20260506130503 52 34 0.9 4.3 0.00 0.00 0.00 84 1018.3
20260506130018 52 59 2.6 4.3 0.00 0.00 0.00 84 1018.2
20260506125504 52 77 2.6 4.3 0.00 0.00 0.00 84 1018.1
20260506125003 52 71 2.6 5.2 0.00 0.00 0.00 83 1018.1
20260506124520 53 70 2.6 5.2 0.00 0.00 0.00 83 1018.0
20260506124006 53 53 1.7 4.3 0.00 0.00 0.00 83 1018.0
20260506123505 53 56 2.6 4.3 0.00 0.00 0.00 83 1018.1
20260506123022 53 53 2.6 8.7 0.00 0.00 0.00 83 1018.0
20260506122507 53 45 2.6 8.7 0.00 0.00 0.00 84 1017.9
20260506122003 53 49 1.7 4.3 0.00 0.00 0.00 83 1017.8
20260506121505 53 54 1.7 4.3 0.00 0.00 0.00 84 1017.7
20260506121003 53 40 2.6 4.3 0.00 0.00 0.00 84 1017.6
20260506120503 53 41 2.6 5.2 0.00 0.00 0.00 84 1017.6
20260506120021 53 33 3.5 5.2 0.00 0.00 0.00 84 1017.6
20260506115504 53 38 1.7 4.3 0.00 0.00 0.00 84 1017.6
20260506115003 53 65 2.6 7.0 0.00 0.00 0.00 85 1017.6
20260506114511 53 36 3.5 7.0 0.00 0.00 0.00 85 1017.6
20260506114004 53 53 3.5 7.0 0.00 0.00 0.00 85 1017.6
20260506113502 53 46 3.5 6.1 0.00 0.00 0.00 85 1017.6
20260506113021 53 38 3.5 7.8 0.00 0.00 0.00 85 1017.6
20260506112508 53 63 4.3 7.8 0.00 0.00 0.00 84 1017.5
20260506112003 53 45 3.5 7.0 0.00 0.00 0.00 84 1017.5
20260506111523 53 62 3.5 7.0 0.00 0.00 0.00 84 1017.6
20260506111004 54 49 3.5 7.8 0.00 0.00 0.00 84 1017.6
20260506110504 54 53 3.5 7.8 0.00 0.00 0.00 85 1017.6
20260506110026 54 24 3.5 7.8 0.00 0.00 0.00 85 1017.7
20260506105504 54 36 5.2 7.8 0.00 0.00 0.00 85 1017.7
20260506105003 53 44 3.5 7.8 0.00 0.00 0.00 85 1017.6
20260506104512 53 40 3.5 6.1 0.00 0.00 0.00 86 1017.7
20260506104003 53 31 3.5 6.1 0.00 0.00 0.00 86 1017.6
20260506103508 53 69 3.5 6.1 0.00 0.00 0.00 86 1017.5
20260506103016 53 40 2.6 6.1 0.00 0.00 0.00 86 1017.6
20260506102507 53 44 2.6 7.0 0.00 0.00 0.00 86 1017.5
20260506102004 53 65 3.5 7.0 0.00 0.00 0.00 86 1017.5
20260506101522 53 37 4.3 7.8 0.00 0.00 0.00 86 1017.6
20260506101007 53 36 3.5 7.8 0.00 0.00 0.00 86 1017.6
20260506100504 53 61 3.5 6.1 0.00 0.00 0.00 86 1017.6
20260506100023 53 62 3.5 7.8 0.00 0.00 0.00 86 1017.7
20260506095505 53 59 2.6 7.8 0.00 0.00 0.00 86 1017.6
20260506095002 53 51 3.5 6.1 0.00 0.00 0.00 86 1017.6
20260506094528 53 59 2.6 6.1 0.00 0.00 0.00 86 1017.7
20260506094005 53 57 2.6 5.2 0.00 0.00 0.00 85 1017.7
20260506093505 53 66 1.7 3.5 0.00 0.00 0.00 85 1017.9
20260506093014 54 71 1.7 2.6 0.00 0.00 0.00 85 1017.8
20260506092506 54 46 1.7 2.6 0.00 0.00 0.00 85 1017.9
20260506092009 54 40 0.9 2.6 0.00 0.00 0.00 85 1017.9
20260506091521 54 49 1.7 2.6 0.00 0.00 0.00 85 1018.0
20260506091006 54 46 0.9 2.6 0.00 0.00 0.00 85 1018.0
20260506090507 54 53 0.9 3.5 0.00 0.00 0.00 85 1018.0
20260506090027 53 62 1.7 3.5 0.00 0.00 0.00 85 1018.0
20260506085503 54 63 1.7 4.3 0.00 0.00 0.00 85 1018.1
20260506085003 54 75 2.6 4.3 0.00 0.00 0.00 85 1018.1
20260506084511 54 51 1.7 3.5 0.00 0.00 0.00 85 1018.2
20260506084004 54 51 1.7 3.5 0.00 0.00 0.00 84 1018.2
20260506083504 55 50 1.7 4.3 0.00 0.00 0.00 84 1018.1
20260506083005 55 72 2.6 4.3 0.00 0.00 0.00 84 1018.1
20260506082504 55 92 1.7 3.5 0.00 0.00 0.00 85 1018.1
20260506082005 55 86 2.6 4.3 0.00 0.00 0.00 85 1018.1
20260506081505 55 55 1.7 4.3 0.00 0.00 0.00 85 1018.1
20260506081004 55 37 2.6 4.3 0.00 0.00 0.00 85 1018.2
20260506080503 55 51 2.6 4.3 0.00 0.00 0.00 85 1018.2